Location: Freemans Gardens
(41.6414°N, 83.6077°W)
Time: 03:47:13
(UTC+00:00)

Cosmos 1408 - Pass Details

Date: 29 October 2020
Orbit: 470 x 492 km, 82.6° (Epoch: 26 November)

Event Time Altitude Azimuth Distance (km) Brightness Sun altitude
Rises 22:57:04 0° 13° (NNE) 2,557 6.0 -5.3°
Reaches altitude 10° 23:00:09 10° 41° (NE) 1,676 4.8 -5.9°
Maximum altitude 23:01:57 13° 71° (ENE) 1,487 4.4 -6.2°
Drops below altitude 10° 23:03:45 10° 101° (E) 1,676 4.7 -6.5°
Sets 23:06:49 0° 129° (SE) 2,555 5.9 -7.1°
